Regional Weather Roundup
Issued by NWS

Home | Current Version | Previous Version | Graphics & Text | Print | Product List | Glossary On
Versions: 1 2 3 4 5 6 7 8 9 10 11 12 13 14 15 16 17 18 19 20 21 22 23 24 25 26 27 28 29 30 31 32 33 34 35 36 37 38 39 40 41 42 43 44 45 46 47 48 49 50
000
ASUS45 KPSR 242110
RWRAZ

ARIZONA REGIONAL HOURLY WEATHER ROUNDUP
NATIONAL WEATHER SERVICE PHOENIX AZ
200 PM MST THU JUL 24 2014

NOTE: FAIR INDICATES FEW OR NO CLOUDS BELOW 12,000 FEET WITH NO
SIGNIFICANT WEATHER AND/OR OBSTRUCTIONS TO VISIBILITY.

AZZ001>003-036-242200-
NORTHWEST ARIZONA

CITY           SKY/WX    TMP DP  RH WIND       PRES   REMARKS
BULLHEAD CITY  FAIR     113  48  11 S7G17     29.73F HX 109
KINGMAN        FAIR     104  42  12 W18G26    29.98F
$$

AZZ004>008-015-016-018-242200-
NORTH CENTRAL ARIZONA

CITY           SKY/WX    TMP DP  RH WIND       PRES   REMARKS
GRAND CANYON   FAIR      85  45  24 S9        30.28F
WILLIAMS       CLOUDY    63  54  72 N12       30.37R
PRESCOTT       FAIR      83  56  39 SW9       30.16F
FLAGSTAFF      FAIR      79  50  36 N7        30.32F THUNDER
PAYSON         FAIR      93  43  17 SE9G18    30.18F
PAGE           FAIR      99  47  17 CALM      30.05F
$$

AZZ009>014-017-242200-
NORTHEAST ARIZONA

CITY           SKY/WX    TMP DP  RH WIND       PRES   REMARKS
WINSLOW        CLOUDY    98  43  15 SE12      30.13F
SAINT JOHNS    FAIR      91  39  16 MISG      30.21F
WINDOW ROCK    CLOUDY    85  40  20 SW7       30.31F
SHOW LOW       FAIR      84  37  18 SW7       30.30F
$$

AZZ023-242200-
GREATER PHOENIX AREA

CITY           SKY/WX    TMP DP  RH WIND       PRES   REMARKS
PHOENIX        FAIR     114  46  10 S10       29.77F HX 109
BUCKEYE          N/A    111  50  13 SE8       29.77F HX 108
GLENDALE       MOSUNNY  113  48  11 E13       29.79F HX 109
LUKE AFB       NOT AVBL
DEER VALLEY    FAIR     109  43  10 E8G21     29.80F HX 104
SCOTTSDALE     FAIR     110  46  11 S10G20    29.81F HX 105
MESA-FALCON    MOSUNNY  115  43   9 SE9       29.80  HX 109
MESA-GATEWAY   MOSUNNY  111  41   9 SE10      29.82  HX 105
CHANDLER       MOSUNNY  111  45  10 SE12        N/A  HX 106
$$

AZZ027-028-242200-
SOUTHWEST MARICOPA COUNTY AND PINAL COUNTY

CITY           SKY/WX    TMP DP  RH WIND       PRES   REMARKS
CASA GRANDE    FAIR     109  46  12 E5        29.83F HX 105
GILA BEND      PTCLDY   111  48  12 E9G17     29.75F HX 107
$$

AZZ503-504-507>509-242200-
SOUTHEAST ARIZONA

CITY           SKY/WX    TMP DP  RH WIND       PRES   REMARKS
TUCSON         FAIR     107  39  10 SE16G22   29.94F HX 101
DAVIS-MONTHAN  FAIR     104  43  12 SE17      29.93F
RYAN FIELD       N/A    106  39  10 E12G21    29.92F HX 100
NOGALES        FAIR      97  46  17 VRB5      30.04
SIERRA VISTA   PTSUNNY   97  41  14 SE9       30.15F
DOUGLAS        FAIR      96  46  18 E9        30.09F
SAFFORD        FAIR     101  41  12 SE15G26   30.01F
$$

AZZ020-021-025-026-031-242200-
SOUTHWEST ARIZONA

CITY           SKY/WX    TMP DP  RH WIND       PRES   REMARKS
YUMA           PTSUNNY  113  42   9 W8        29.71F HX 107
$$

CAZ031-033-041-043-047-048-061-242200-
SOUTHERN CALIFORNIA

CITY           SKY/WX    TMP DP  RH WIND       PRES   REMARKS
DOWNTOWN L.A.  FAIR      89  61  38 CALM      29.80S
L.A. AIRPORT   FAIR      79  61  53 W16       29.82F
SAN DIEGO      FAIR      80  63  55 NW9G17    29.82F
BURBANK        FAIR      95  55  26 S12       29.81S
ONTARIO        FAIR     103  41  12 W9        29.80F
RIVERSIDE      FAIR     103  36  10 VRB7      29.79F
PALM SPRINGS   FAIR     114  31   6 E6        29.72F HX 106
EL CENTRO NAS  PTSUNNY  114  44   9 SE8       29.67F HX 109
IMPERIAL       FAIR     114  43   9 SE9       29.67F HX 108
BLYTHE         FAIR     112  44  10 VRB6      29.71F HX 107
NEEDLES        FAIR     115  42   8 SW9       29.74F HX 109
$$

NVZ020-UTZ003-242200-
SOUTHERN NEVADA-UTAH

CITY           SKY/WX    TMP DP  RH WIND       PRES   REMARKS
LAS VEGAS      FAIR     110  32   7 SW18G26   29.79F HX 102
SALT LAKE CITY FAIR      91  40  16 N13G20    30.02F
$$

NMZ009-TXZ055-242200-
NEW MEXICO-WEST TEXAS

CITY           SKY/WX    TMP DP  RH WIND       PRES   REMARKS
ALBUQUERQUE    MOSUNNY   90  38  16 VRB6      30.24F
EL PASO        FAIR      95  48  20 S7        30.12F
$$


........................KEY........................
SKY/WX - SKY CONDITION/WEATHER
TMP    - TEMPERATURE IN FAHRENHEIT
DP     - DEW POINT IN FAHRENHEIT
RH     - RELATIVE HUMIDITY IN PERCENT
WIND   - DIRECTION AND SPEED IN MILES PER HOUR (MPH)
VRB    - VARIABLE WIND DIRECTION
PRES   - MEAN SEA LEVEL PRESSURE IN INCHES OF MERCURY
         F - FALLING PRESSURE   R - RISING PRESSURE
         S - STEADY PRESSURE
VSB    - VISIBILITY IN MILES
HX     - HEAT INDEX IN FAHRENHEIT
WCI    - WIND CHILL INDEX IN FAHRENHEIT
TC     - TEMPERATURE IN CELSIUS WHICH IS ALSO KNOWN AS
         TEMPERATURE IN CENTIGRADE
AFB    - AIR FORCE BASE
         LUKE AFB IS LUKE AIR FORCE BASE
         DAVIS-MONTHAN IS DAVIS-MONTHAN AIR FORCE BASE
NAS    - NAVAL AIR STATION
         EL CENTRO NAS IS EL CENTRO NAVAL AIR STATION
N/A    - NOT AVAILABLE


USA.gov is the U.S. government's official web portal to all federal, state and local government web resources and services.